Time,TemperatureF,DewpointF,PressureIn,WindDirection,WindDirectionDegrees,WindSpeedMPH,WindSpeedGustMPH,Humidity,HourlyPrecipIn,Conditions,Clouds,dailyrainin,SoftwareType,DateUTC
2013-06-09 00:02:00,64.0,60.4,29.98,NE,50,6.0,11.0,88,0.00,,,0.13,meteohub,2013-06-09 05:02:00,
2013-06-09 00:07:00,64.0,60.4,29.98,ENE,57,8.0,11.0,88,0.00,,,0.00,meteohub,2013-06-09 05:07:00,
2013-06-09 00:12:00,64.0,60.4,29.98,ENE,66,7.0,11.0,88,0.00,,,0.00,meteohub,2013-06-09 05:12:00,
2013-06-09 00:17:00,64.0,60.4,29.97,NE,34,6.0,9.0,88,0.00,,,0.00,meteohub,2013-06-09 05:17:00,
2013-06-09 00:22:00,64.0,60.4,29.96,ENE,62,10.0,11.0,88,0.00,,,0.00,meteohub,2013-06-09 05:22:00,
2013-06-09 00:27:00,64.0,60.4,29.96,ENE,63,8.0,11.0,88,0.00,,,0.00,meteohub,2013-06-09 05:27:00,
2013-06-09 00:32:00,64.0,60.4,29.95,ENE,71,5.0,11.0,88,0.00,,,0.00,meteohub,2013-06-09 05:32:00,
2013-06-09 00:37:00,64.0,60.4,29.96,ENE,57,5.0,10.0,88,0.00,,,0.00,meteohub,2013-06-09 05:37:00,
2013-06-09 00:42:00,64.0,60.4,29.96,NE,52,2.0,10.0,88,0.00,,,0.00,meteohub,2013-06-09 05:42:00,
2013-06-09 00:47:00,63.9,60.3,29.96,NE,48,2.0,8.0,88,0.00,,,0.00,meteohub,2013-06-09 05:47:00,
2013-06-09 00:52:00,63.9,60.3,29.97,NE,51,1.0,8.0,88,0.00,,,0.00,meteohub,2013-06-09 05:52:00,
2013-06-09 00:57:00,63.9,60.3,29.97,North,355,1.0,4.0,88,0.00,,,0.00,meteohub,2013-06-09 05:57:00,
2013-06-09 01:02:00,63.9,60.3,29.97,North,0,2.0,4.0,88,0.00,,,0.00,meteohub,2013-06-09 06:02:00,
2013-06-09 01:07:00,63.9,60.3,29.96,NE,44,0.0,3.0,88,0.00,,,0.00,meteohub,2013-06-09 06:07:00,
2013-06-09 01:12:00,63.9,60.3,29.97,NNW,335,1.0,3.0,88,0.00,,,0.00,meteohub,2013-06-09 06:12:00,
2013-06-09 01:17:00,63.9,60.3,29.97,NW,307,1.0,3.0,88,0.00,,,0.00,meteohub,2013-06-09 06:17:00,
2013-06-09 01:22:00,63.5,60.3,29.97,WNW,300,3.0,3.0,89,0.00,,,0.00,meteohub,2013-06-09 06:22:00,
2013-06-09 01:27:00,63.3,60.3,29.97,West,272,2.0,3.0,90,0.00,,,0.00,meteohub,2013-06-09 06:27:00,
2013-06-09 01:32:00,63.1,60.1,29.96,WNW,283,2.0,3.0,90,0.00,,,0.00,meteohub,2013-06-09 06:32:00,
2013-06-09 01:37:00,63.1,60.1,29.96,WNW,283,1.0,3.0,90,0.00,,,0.00,meteohub,2013-06-09 06:37:00,
2013-06-09 01:42:00,63.3,60.3,29.96,WNW,283,0.0,2.0,90,0.00,,,0.00,meteohub,2013-06-09 06:42:00,
2013-06-09 01:47:00,63.3,60.3,29.96,WSW,250,0.0,2.0,90,0.00,,,0.00,meteohub,2013-06-09 06:47:00,
2013-06-09 01:52:00,63.3,60.3,29.96,WSW,252,2.0,2.0,90,0.00,,,0.00,meteohub,2013-06-09 06:52:00,
2013-06-09 01:57:00,63.3,60.3,29.96,WSW,253,2.0,3.0,90,0.00,,,0.00,meteohub,2013-06-09 06:57:00,
2013-06-09 02:02:00,63.1,60.4,29.96,WSW,257,1.0,4.0,91,0.00,,,0.00,meteohub,2013-06-09 07:02:00,
2013-06-09 02:07:00,63.1,60.4,29.96,West,262,1.0,4.0,91,0.00,,,0.00,meteohub,2013-06-09 07:07:00,
2013-06-09 02:12:00,63.0,60.3,29.96,WNW,293,2.0,4.0,91,0.00,,,0.00,meteohub,2013-06-09 07:12:00,
2013-06-09 02:17:00,62.8,60.1,29.96,WNW,300,2.0,2.0,91,0.00,,,0.00,meteohub,2013-06-09 07:17:00,
2013-06-09 02:22:00,62.8,60.1,29.96,WNW,291,2.0,3.0,91,0.00,,,0.00,meteohub,2013-06-09 07:22:00,
2013-06-09 02:27:00,62.8,60.4,29.96,WNW,301,3.0,3.0,92,0.00,,,0.00,meteohub,2013-06-09 07:27:00,
2013-06-09 02:32:00,62.8,60.4,29.96,WNW,302,2.0,4.0,92,0.00,,,0.00,meteohub,2013-06-09 07:32:00,
2013-06-09 02:37:00,62.6,60.3,29.96,NW,318,4.0,4.0,92,0.00,,,0.00,meteohub,2013-06-09 07:37:00,
2013-06-09 02:42:00,62.6,60.3,29.96,WNW,300,0.0,4.0,92,0.00,,,0.00,meteohub,2013-06-09 07:42:00,
2013-06-09 02:47:00,62.6,60.3,29.95,WNW,300,0.0,4.0,92,0.00,,,0.00,meteohub,2013-06-09 07:47:00,
2013-06-09 02:52:00,62.6,60.3,29.95,WNW,298,0.0,4.0,92,0.00,,,0.00,meteohub,2013-06-09 07:52:00,
2013-06-09 02:57:00,62.6,60.3,29.96,WNW,284,1.0,2.0,92,0.00,,,0.00,meteohub,2013-06-09 07:57:00,
2013-06-09 03:02:00,62.4,60.1,29.95,West,273,0.0,2.0,92,0.00,,,0.00,meteohub,2013-06-09 08:02:00,
2013-06-09 03:07:00,62.4,60.1,29.95,West,274,0.0,2.0,92,0.00,,,0.00,meteohub,2013-06-09 08:07:00,
2013-06-09 03:12:00,62.4,60.1,29.95,West,278,1.0,2.0,92,0.00,,,0.00,meteohub,2013-06-09 08:12:00,
2013-06-09 03:17:00,62.4,60.1,29.95,West,278,0.0,2.0,92,0.00,,,0.00,meteohub,2013-06-09 08:17:00,
2013-06-09 03:22:00,62.4,60.4,29.95,West,279,0.0,2.0,93,0.00,,,0.00,meteohub,2013-06-09 08:22:00,
2013-06-09 03:28:00,62.4,60.1,29.95,WNW,284,0.0,2.0,92,0.00,,,0.00,meteohub,2013-06-09 08:28:00,
2013-06-09 03:33:00,62.4,60.1,29.95,WNW,283,0.0,0.0,92,0.00,,,0.00,meteohub,2013-06-09 08:33:00,
2013-06-09 03:38:00,62.4,60.1,29.95,WNW,284,0.0,1.0,92,0.00,,,0.00,meteohub,2013-06-09 08:38:00,
2013-06-09 03:43:00,62.4,60.1,29.95,WNW,284,0.0,1.0,92,0.00,,,0.00,meteohub,2013-06-09 08:43:00,
2013-06-09 03:48:00,62.4,60.1,29.94,SE,129,0.0,1.0,92,0.00,,,0.00,meteohub,2013-06-09 08:48:00,
2013-06-09 03:53:00,62.6,60.3,29.94,SE,124,0.0,0.0,92,0.00,,,0.00,meteohub,2013-06-09 08:53:00,
2013-06-09 03:58:00,62.8,60.4,29.94,ESE,114,0.0,0.0,92,0.00,,,0.00,meteohub,2013-06-09 08:58:00,
2013-06-09 04:03:00,62.6,60.3,29.95,NNW,346,2.0,0.0,92,0.00,,,0.00,meteohub,2013-06-09 09:03:00,
2013-06-09 04:08:00,62.6,60.3,29.95,NNW,338,2.0,2.0,92,0.00,,,0.00,meteohub,2013-06-09 09:08:00,
2013-06-09 04:13:00,62.4,60.1,29.95,NNW,337,1.0,3.0,92,0.00,,,0.00,meteohub,2013-06-09 09:13:00,
2013-06-09 04:18:00,62.6,60.3,29.95,NNW,337,1.0,3.0,92,0.00,,,0.00,meteohub,2013-06-09 09:18:00,
2013-06-09 04:23:00,62.8,60.4,29.95,NNW,337,2.0,2.0,92,0.00,,,0.00,meteohub,2013-06-09 09:23:00,
2013-06-09 04:28:00,62.6,60.3,29.96,NNW,343,3.0,3.0,92,0.00,,,0.00,meteohub,2013-06-09 09:28:00,
2013-06-09 04:33:00,62.4,60.1,29.96,WNW,294,1.0,4.0,92,0.00,,,0.00,meteohub,2013-06-09 09:33:00,
2013-06-09 04:38:00,62.4,60.1,29.96,West,280,0.0,4.0,92,0.00,,,0.00,meteohub,2013-06-09 09:38:00,
2013-06-09 04:43:00,62.2,59.9,29.96,WNW,298,1.0,4.0,92,0.00,,,0.00,meteohub,2013-06-09 09:43:00,
2013-06-09 04:48:00,62.2,59.5,29.96,WNW,290,2.0,3.0,91,0.00,,,0.00,meteohub,2013-06-09 09:48:00,
2013-06-09 04:53:00,62.2,59.9,29.96,NW,314,3.0,3.0,92,0.00,,,0.00,meteohub,2013-06-09 09:53:00,
2013-06-09 04:58:00,62.1,59.7,29.97,NW,316,0.0,3.0,92,0.00,,,0.00,meteohub,2013-06-09 09:58:00,
2013-06-09 05:03:00,62.1,59.7,29.97,NNW,338,1.0,3.0,92,0.00,,,0.00,meteohub,2013-06-09 10:03:00,
2013-06-09 05:08:00,62.2,59.9,29.97,NNW,337,0.0,3.0,92,0.00,,,0.00,meteohub,2013-06-09 10:08:00,
2013-06-09 05:13:00,62.2,59.5,29.96,NNW,337,0.0,3.0,91,0.00,,,0.00,meteohub,2013-06-09 10:13:00,
2013-06-09 05:18:00,62.2,59.5,29.96,WNW,287,0.0,2.0,91,0.00,,,0.00,meteohub,2013-06-09 10:18:00,
2013-06-09 05:23:00,62.4,59.7,29.96,WNW,294,0.0,1.0,91,0.00,,,0.00,meteohub,2013-06-09 10:23:00,
2013-06-09 05:28:00,62.6,59.5,29.97,WNW,292,0.0,1.0,90,0.00,,,0.00,meteohub,2013-06-09 10:28:00,
2013-06-09 05:33:00,62.4,59.7,29.97,WNW,293,0.0,0.0,91,0.00,,,0.00,meteohub,2013-06-09 10:33:00,
2013-06-09 05:38:00,62.4,59.7,29.97,WNW,293,0.0,0.0,91,0.00,,,0.00,meteohub,2013-06-09 10:38:00,
2013-06-09 05:43:00,62.2,59.5,29.97,WNW,290,0.0,0.0,91,0.00,,,0.00,meteohub,2013-06-09 10:43:00,
2013-06-09 05:48:00,62.1,59.4,29.97,West,281,0.0,0.0,91,0.00,,,0.00,meteohub,2013-06-09 10:48:00,
2013-06-09 05:53:00,62.1,59.4,29.97,West,277,0.0,0.0,91,0.00,,,0.00,meteohub,2013-06-09 10:53:00,
2013-06-09 05:58:00,61.7,59.4,29.98,WNW,291,0.0,0.0,92,0.00,,,0.00,meteohub,2013-06-09 10:58:00,
2013-06-09 06:03:00,61.5,59.2,29.98,WNW,291,3.0,0.0,92,0.00,,,0.00,meteohub,2013-06-09 11:03:00,
2013-06-09 06:08:00,61.5,59.2,29.97,WNW,290,4.0,4.0,92,0.00,,,0.00,meteohub,2013-06-09 11:08:00,
2013-06-09 06:13:00,61.9,59.5,29.98,WNW,297,2.0,5.0,92,0.00,,,0.00,meteohub,2013-06-09 11:13:00,
2013-06-09 06:18:00,62.1,59.4,29.98,NW,309,2.0,6.0,91,0.00,,,0.00,meteohub,2013-06-09 11:18:00,
2013-06-09 06:23:00,62.1,59.4,29.98,NW,304,4.0,7.0,91,0.00,,,0.00,meteohub,2013-06-09 11:23:00,
2013-06-09 06:28:00,61.9,59.2,29.98,NW,304,2.0,7.0,91,0.00,,,0.00,meteohub,2013-06-09 11:28:00,
2013-06-09 06:33:00,61.9,59.2,29.98,WNW,300,4.0,7.0,91,0.00,,,0.00,meteohub,2013-06-09 11:33:00,
2013-06-09 06:38:00,62.1,59.4,29.98,NW,309,2.0,6.0,91,0.00,,,0.00,meteohub,2013-06-09 11:38:00,
2013-06-09 06:43:00,62.2,59.2,29.99,NW,318,5.0,7.0,90,0.00,,,0.00,meteohub,2013-06-09 11:43:00,
2013-06-09 06:48:00,62.4,59.4,29.99,WNW,297,6.0,7.0,90,0.00,,,0.00,meteohub,2013-06-09 11:48:00,
2013-06-09 06:53:00,62.8,59.5,30.00,NW,326,5.0,7.0,89,0.00,,,0.00,meteohub,2013-06-09 11:53:00,
2013-06-09 06:58:00,63.0,59.7,30.00,NW,316,5.0,8.0,89,0.00,,,0.00,meteohub,2013-06-09 11:58:00,
2013-06-09 07:03:00,63.1,59.5,30.00,WNW,295,5.0,8.0,88,0.00,,,0.00,meteohub,2013-06-09 12:03:00,
2013-06-09 07:08:00,63.5,59.2,30.00,NW,304,3.0,8.0,86,0.00,,,0.00,meteohub,2013-06-09 12:08:00,
2013-06-09 07:13:00,64.0,58.8,30.00,NW,309,4.0,10.0,83,0.00,,,0.00,meteohub,2013-06-09 12:13:00,
2013-06-09 07:18:00,64.6,58.6,30.00,WNW,301,3.0,11.0,81,0.00,,,0.00,meteohub,2013-06-09 12:18:00,
2013-06-09 07:23:00,64.8,58.1,29.99,WNW,300,7.0,11.0,79,0.00,,,0.00,meteohub,2013-06-09 12:23:00,
2013-06-09 07:28:00,64.9,57.9,30.00,NW,304,6.0,11.0,78,0.00,,,0.00,meteohub,2013-06-09 12:28:00,
2013-06-09 07:33:00,65.1,58.5,30.00,NNW,329,10.0,10.0,79,0.00,,,0.00,meteohub,2013-06-09 12:33:00,
2013-06-09 07:38:00,65.5,58.1,30.00,NW,304,5.0,11.0,77,0.00,,,0.00,meteohub,2013-06-09 12:38:00,
2013-06-09 07:43:00,65.7,58.3,30.00,NW,305,4.0,11.0,77,0.00,,,0.00,meteohub,2013-06-09 12:43:00,
2013-06-09 07:48:00,65.8,58.5,30.00,NW,304,7.0,11.0,77,0.00,,,0.00,meteohub,2013-06-09 12:48:00,
2013-06-09 07:53:00,65.8,58.1,30.00,NW,325,5.0,10.0,76,0.00,,,0.00,meteohub,2013-06-09 12:53:00,
2013-06-09 07:58:00,65.8,58.1,30.00,NNE,18,4.0,10.0,76,0.00,,,0.00,meteohub,2013-06-09 12:58:00,
2013-06-09 08:03:00,66.0,58.6,30.00,NW,316,6.0,10.0,77,0.00,,,0.00,meteohub,2013-06-09 13:03:00,
2013-06-09 08:08:00,66.0,58.3,30.00,NW,314,3.0,10.0,76,0.00,,,0.00,meteohub,2013-06-09 13:08:00,
2013-06-09 08:13:00,66.4,58.6,30.00,NW,309,4.0,9.0,76,0.00,,,0.00,meteohub,2013-06-09 13:13:00,
2013-06-09 08:19:00,66.4,57.9,30.01,WNW,298,11.0,11.0,74,0.00,,,0.00,meteohub,2013-06-09 13:19:00,
2013-06-09 08:24:00,66.4,58.3,30.01,WNW,300,10.0,11.0,75,0.00,,,0.00,meteohub,2013-06-09 13:24:00,
2013-06-09 08:29:00,66.7,58.1,30.01,NW,320,5.0,11.0,74,0.00,,,0.00,meteohub,2013-06-09 13:29:00,
2013-06-09 08:34:00,66.9,57.6,30.01,NNW,335,2.0,11.0,72,0.00,,,0.00,meteohub,2013-06-09 13:34:00,
2013-06-09 08:39:00,67.5,58.5,30.00,NW,313,2.0,11.0,73,0.00,,,0.00,meteohub,2013-06-09 13:39:00,
2013-06-09 08:44:00,67.8,58.5,30.01,WNW,290,3.0,11.0,72,0.00,,,0.00,meteohub,2013-06-09 13:44:00,
2013-06-09 08:49:00,68.4,58.6,30.01,NNW,335,3.0,11.0,71,0.00,,,0.00,meteohub,2013-06-09 13:49:00,
2013-06-09 08:54:00,68.5,58.3,30.01,NW,316,8.0,9.0,70,0.00,,,0.00,meteohub,2013-06-09 13:54:00,
2013-06-09 08:59:00,68.7,58.1,30.01,WNW,290,5.0,8.0,69,0.00,,,0.00,meteohub,2013-06-09 13:59:00,
2013-06-09 09:04:00,69.1,58.1,30.01,WNW,297,5.0,10.0,68,0.00,,,0.00,meteohub,2013-06-09 14:04:00,
2013-06-09 09:09:00,69.3,57.9,30.01,NNE,15,5.0,10.0,67,0.00,,,0.00,meteohub,2013-06-09 14:09:00,
2013-06-09 09:14:00,69.6,57.7,30.02,NW,304,7.0,9.0,66,0.00,,,0.00,meteohub,2013-06-09 14:14:00,
2013-06-09 09:19:00,69.6,58.1,30.02,NW,306,6.0,8.0,67,0.00,,,0.00,meteohub,2013-06-09 14:19:00,
2013-06-09 09:24:00,70.0,57.2,30.02,WNW,297,7.0,11.0,64,0.00,,,0.00,meteohub,2013-06-09 14:24:00,
2013-06-09 09:29:00,71.1,58.3,30.02,North,6,5.0,11.0,64,0.00,,,0.00,meteohub,2013-06-09 14:29:00,
2013-06-09 09:34:00,71.2,58.5,30.02,WNW,285,3.0,11.0,64,0.00,,,0.00,meteohub,2013-06-09 14:34:00,
2013-06-09 09:39:00,71.4,57.7,30.02,NW,309,6.0,11.0,62,0.00,,,0.00,meteohub,2013-06-09 14:39:00,
2013-06-09 09:44:00,71.8,57.6,30.02,NW,316,6.0,11.0,61,0.00,,,0.00,meteohub,2013-06-09 14:44:00,
2013-06-09 09:49:00,72.0,57.4,30.02,NNW,337,9.0,13.0,60,0.00,,,0.00,meteohub,2013-06-09 14:49:00,
2013-06-09 09:54:00,72.0,57.4,30.02,NW,325,4.0,13.0,60,0.00,,,0.00,meteohub,2013-06-09 14:54:00,
2013-06-09 09:59:00,72.1,57.0,30.02,NNW,343,7.0,12.0,59,0.00,,,0.00,meteohub,2013-06-09 14:59:00,
2013-06-09 10:04:00,72.3,56.3,30.02,NNW,343,10.0,11.0,57,0.00,,,0.00,meteohub,2013-06-09 15:04:00,
2013-06-09 10:09:00,72.5,56.8,30.02,North,354,8.0,12.0,58,0.00,,,0.00,meteohub,2013-06-09 15:09:00,
2013-06-09 10:14:00,72.9,57.2,30.02,NNW,337,4.0,12.0,58,0.00,,,0.00,meteohub,2013-06-09 15:14:00,
2013-06-09 10:19:00,73.2,57.0,30.02,NW,309,7.0,12.0,57,0.00,,,0.00,meteohub,2013-06-09 15:19:00,
2013-06-09 10:24:00,73.6,57.4,30.02,WNW,290,3.0,11.0,57,0.00,,,0.00,meteohub,2013-06-09 15:24:00,
2013-06-09 10:29:00,74.1,57.4,30.02,NW,322,4.0,13.0,56,0.00,,,0.00,meteohub,2013-06-09 15:29:00,
2013-06-09 10:34:00,74.7,56.5,30.02,WNW,295,4.0,13.0,53,0.00,,,0.00,meteohub,2013-06-09 15:34:00,
2013-06-09 10:39:00,74.8,56.1,30.02,NW,319,6.0,13.0,52,0.00,,,0.00,meteohub,2013-06-09 15:39:00,
2013-06-09 10:44:00,75.2,57.9,30.02,NNW,332,0.0,9.0,55,0.00,,,0.00,meteohub,2013-06-09 15:44:00,
2013-06-09 10:49:00,75.4,55.9,30.02,West,273,5.0,10.0,51,0.00,,,0.00,meteohub,2013-06-09 15:49:00,
2013-06-09 10:54:00,75.6,55.0,30.02,NW,316,7.0,10.0,49,0.00,,,0.00,meteohub,2013-06-09 15:54:00,
2013-06-09 10:59:00,75.7,54.7,30.01,NW,309,5.0,11.0,48,0.00,,,0.00,meteohub,2013-06-09 15:59:00,
2013-06-09 11:04:00,75.9,54.9,30.02,NNW,344,8.0,11.0,48,0.00,,,0.00,meteohub,2013-06-09 16:04:00,
2013-06-09 11:09:00,75.9,53.6,30.01,NNW,343,3.0,11.0,46,0.00,,,0.00,meteohub,2013-06-09 16:09:00,
2013-06-09 11:14:00,76.8,53.2,30.02,WNW,290,8.0,11.0,44,0.00,,,0.00,meteohub,2013-06-09 16:14:00,
2013-06-09 11:19:00,76.6,53.8,30.02,WNW,287,7.0,11.0,45,0.00,,,0.00,meteohub,2013-06-09 16:19:00,
2013-06-09 11:24:00,77.2,52.9,30.02,North,351,6.0,10.0,43,0.00,,,0.00,meteohub,2013-06-09 16:24:00,
2013-06-09 11:29:00,77.4,51.8,30.02,WNW,302,3.0,10.0,41,0.00,,,0.00,meteohub,2013-06-09 16:29:00,
2013-06-09 11:34:00,77.9,52.3,30.02,NW,320,5.0,10.0,41,0.00,,,0.00,meteohub,2013-06-09 16:34:00,
2013-06-09 11:39:00,78.3,52.7,30.02,NNE,13,3.0,8.0,41,0.00,,,0.00,meteohub,2013-06-09 16:39:00,
2013-06-09 11:44:00,78.4,52.2,30.01,NW,308,3.0,8.0,40,0.00,,,0.00,meteohub,2013-06-09 16:44:00,
2013-06-09 11:49:00,78.1,51.8,30.02,NW,315,5.0,8.0,40,0.00,,,0.00,meteohub,2013-06-09 16:49:00,
2013-06-09 11:54:00,78.1,51.8,30.02,WNW,290,3.0,14.0,40,0.00,,,0.00,meteohub,2013-06-09 16:54:00,
2013-06-09 11:59:00,78.3,52.0,30.02,NW,304,4.0,14.0,40,0.00,,,0.00,meteohub,2013-06-09 16:59:00,
2013-06-09 12:04:00,78.3,50.5,30.01,NW,318,4.0,12.0,38,0.00,,,0.00,meteohub,2013-06-09 17:04:00,
2013-06-09 12:09:00,78.6,52.9,30.01,West,262,6.0,9.0,41,0.00,,,0.00,meteohub,2013-06-09 17:09:00,
2013-06-09 12:14:00,79.2,52.2,30.01,SW,214,4.0,9.0,39,0.00,,,0.00,meteohub,2013-06-09 17:14:00,
2013-06-09 12:19:00,79.3,50.0,30.01,West,273,2.0,9.0,36,0.00,,,0.00,meteohub,2013-06-09 17:19:00,
2013-06-09 12:24:00,79.2,49.8,30.01,WSW,245,5.0,7.0,36,0.00,,,0.00,meteohub,2013-06-09 17:24:00,
2013-06-09 12:29:00,79.0,51.3,30.01,West,271,4.0,9.0,38,0.00,,,0.00,meteohub,2013-06-09 17:29:00,
2013-06-09 12:34:00,79.2,51.4,30.01,WNW,288,0.0,9.0,38,0.00,,,0.00,meteohub,2013-06-09 17:34:00,
2013-06-09 12:39:00,79.5,51.6,30.01,WSW,243,4.0,9.0,38,0.00,,,0.00,meteohub,2013-06-09 17:39:00,
2013-06-09 12:45:00,79.9,52.0,30.01,WSW,250,11.0,12.0,38,0.00,,,0.00,meteohub,2013-06-09 17:45:00,
2013-06-09 12:50:00,80.1,51.4,30.01,SW,229,6.0,12.0,37,0.00,,,0.00,meteohub,2013-06-09 17:50:00,
2013-06-09 12:55:00,80.4,51.1,30.00,WSW,257,10.0,12.0,36,0.00,,,0.00,meteohub,2013-06-09 17:55:00,
2013-06-09 13:00:00,80.6,50.4,30.00,West,260,10.0,12.0,35,0.00,,,0.00,meteohub,2013-06-09 18:00:00,
2013-06-09 13:05:00,80.6,51.3,30.00,West,270,5.0,12.0,36,0.00,,,0.00,meteohub,2013-06-09 18:05:00,
2013-06-09 13:10:00,80.2,50.2,30.00,WNW,295,6.0,13.0,35,0.00,,,0.00,meteohub,2013-06-09 18:10:00,
2013-06-09 13:15:00,80.8,51.3,30.00,WSW,256,4.0,13.0,36,0.00,,,0.00,meteohub,2013-06-09 18:15:00,
2013-06-09 13:20:00,80.8,51.3,30.00,NW,304,1.0,11.0,36,0.00,,,0.00,meteohub,2013-06-09 18:20:00,
2013-06-09 13:25:00,80.8,51.3,30.00,WSW,257,11.0,11.0,36,0.00,,,0.00,meteohub,2013-06-09 18:25:00,
2013-06-09 13:30:00,80.8,51.3,30.00,West,280,5.0,13.0,36,0.00,,,0.00,meteohub,2013-06-09 18:30:00,
2013-06-09 13:35:00,81.0,52.2,30.00,WNW,301,7.0,13.0,37,0.00,,,0.00,meteohub,2013-06-09 18:35:00,
2013-06-09 13:40:00,81.3,52.5,30.00,WNW,283,6.0,14.0,37,0.00,,,0.00,meteohub,2013-06-09 18:40:00,
2013-06-09 13:45:00,81.5,50.4,30.00,West,273,16.0,16.0,34,0.00,,,0.00,meteohub,2013-06-09 18:45:00,
2013-06-09 13:50:00,81.9,50.0,30.00,WSW,255,12.0,14.0,33,0.00,,,0.00,meteohub,2013-06-09 18:50:00,
2013-06-09 13:55:00,81.9,51.4,30.00,WSW,257,12.0,18.0,35,0.00,,,0.00,meteohub,2013-06-09 18:55:00,
2013-06-09 14:00:00,82.0,50.9,29.99,WNW,298,9.0,21.0,34,0.00,,,0.00,meteohub,2013-06-09 19:00:00,
2013-06-09 14:05:00,82.0,52.5,29.99,West,262,10.0,21.0,36,0.00,,,0.00,meteohub,2013-06-09 19:05:00,
2013-06-09 14:10:00,82.0,52.5,29.99,WSW,255,10.0,19.0,36,0.00,,,0.00,meteohub,2013-06-09 19:10:00,
2013-06-09 14:15:00,82.2,54.1,29.99,SW,225,7.0,19.0,38,0.00,,,0.00,meteohub,2013-06-09 19:15:00,
2013-06-09 14:20:00,82.8,54.5,29.99,WSW,242,8.0,13.0,38,0.00,,,0.00,meteohub,2013-06-09 19:20:00,
2013-06-09 14:25:00,82.9,54.0,29.99,WNW,292,8.0,14.0,37,0.00,,,0.00,meteohub,2013-06-09 19:25:00,
2013-06-09 14:30:00,82.6,53.6,29.99,WSW,255,9.0,19.0,37,0.00,,,0.00,meteohub,2013-06-09 19:30:00,
2013-06-09 14:35:00,82.2,52.5,29.98,WSW,252,5.0,19.0,36,0.00,,,0.00,meteohub,2013-06-09 19:35:00,
2013-06-09 14:40:00,82.8,54.5,29.98,West,261,9.0,19.0,38,0.00,,,0.00,meteohub,2013-06-09 19:40:00,
2013-06-09 14:45:00,82.9,53.2,29.98,WSW,243,12.0,15.0,36,0.00,,,0.00,meteohub,2013-06-09 19:45:00,
2013-06-09 14:50:00,83.7,53.1,29.98,WSW,250,10.0,18.0,35,0.00,,,0.00,meteohub,2013-06-09 19:50:00,
2013-06-09 14:55:00,84.0,52.7,29.97,West,278,14.0,18.0,34,0.00,,,0.00,meteohub,2013-06-09 19:55:00,
2013-06-09 15:00:00,83.7,52.3,29.97,WSW,253,6.0,20.0,34,0.00,,,0.00,meteohub,2013-06-09 20:00:00,
2013-06-09 15:05:00,83.5,53.8,29.97,SW,236,12.0,20.0,36,0.00,,,0.00,meteohub,2013-06-09 20:05:00,
2013-06-09 15:10:00,83.7,53.1,29.97,West,260,11.0,20.0,35,0.00,,,0.00,meteohub,2013-06-09 20:10:00,
2013-06-09 15:15:00,83.7,53.1,29.97,WSW,257,6.0,17.0,35,0.00,,,0.00,meteohub,2013-06-09 20:15:00,
2013-06-09 15:20:00,84.0,54.1,29.97,NW,306,6.0,16.0,36,0.00,,,0.00,meteohub,2013-06-09 20:20:00,
2013-06-09 15:25:00,84.9,54.1,29.96,West,266,10.0,14.0,35,0.00,,,0.00,meteohub,2013-06-09 20:25:00,
2013-06-09 15:30:00,84.9,53.4,29.96,WSW,255,13.0,15.0,34,0.00,,,0.00,meteohub,2013-06-09 20:30:00,
2013-06-09 15:35:00,85.3,53.8,29.96,WNW,284,9.0,16.0,34,0.00,,,0.00,meteohub,2013-06-09 20:35:00,
2013-06-09 15:40:00,85.6,53.2,29.96,West,277,10.0,20.0,33,0.00,,,0.00,meteohub,2013-06-09 20:40:00,
2013-06-09 15:45:00,85.6,52.3,29.96,WNW,298,19.0,20.0,32,0.00,,,0.00,meteohub,2013-06-09 20:45:00,
2013-06-09 15:50:00,85.6,53.2,29.96,West,273,10.0,24.0,33,0.00,,,0.00,meteohub,2013-06-09 20:50:00,
2013-06-09 15:55:00,85.6,53.2,29.95,WSW,245,12.0,24.0,33,0.00,,,0.00,meteohub,2013-06-09 20:55:00,
2013-06-09 16:00:00,86.2,53.8,29.96,WSW,250,12.0,24.0,33,0.00,,,0.00,meteohub,2013-06-09 21:00:00,
2013-06-09 16:05:00,86.0,53.6,29.95,NW,304,8.0,19.0,33,0.00,,,0.00,meteohub,2013-06-09 21:05:00,
2013-06-09 16:11:00,86.2,53.8,29.94,WSW,257,8.0,19.0,33,0.00,,,0.00,meteohub,2013-06-09 21:11:00,
2013-06-09 16:16:00,86.4,54.7,29.94,WNW,295,7.0,19.0,34,0.00,,,0.00,meteohub,2013-06-09 21:16:00,
2013-06-09 16:21:00,86.0,53.6,29.94,WSW,250,5.0,18.0,33,0.00,,,0.00,meteohub,2013-06-09 21:21:00,
2013-06-09 16:26:00,86.0,53.6,29.94,West,266,11.0,14.0,33,0.00,,,0.00,meteohub,2013-06-09 21:26:00,
2013-06-09 16:31:00,85.8,53.4,29.94,West,266,9.0,17.0,33,0.00,,,0.00,meteohub,2013-06-09 21:31:00,
2013-06-09 16:36:00,86.2,54.5,29.94,WSW,256,14.0,18.0,34,0.00,,,0.00,meteohub,2013-06-09 21:36:00,
2013-06-09 16:41:00,86.5,54.9,29.93,WNW,283,8.0,18.0,34,0.00,,,0.00,meteohub,2013-06-09 21:41:00,
2013-06-09 16:46:00,86.4,54.7,29.93,West,277,7.0,19.0,34,0.00,,,0.00,meteohub,2013-06-09 21:46:00,
2013-06-09 16:51:00,85.8,54.1,29.93,WSW,238,15.0,20.0,34,0.00,,,0.00,meteohub,2013-06-09 21:51:00,
2013-06-09 16:56:00,85.8,55.0,29.93,West,269,11.0,20.0,35,0.00,,,0.00,meteohub,2013-06-09 21:56:00,
2013-06-09 17:01:00,86.2,55.4,29.93,WSW,258,6.0,20.0,35,0.00,,,0.00,meteohub,2013-06-09 22:01:00,
2013-06-09 17:06:00,86.4,55.4,29.93,WSW,255,5.0,18.0,35,0.00,,,0.00,meteohub,2013-06-09 22:06:00,
2013-06-09 17:11:00,86.9,55.2,29.92,West,263,6.0,13.0,34,0.00,,,0.00,meteohub,2013-06-09 22:11:00,
2013-06-09 17:16:00,87.4,54.9,29.92,WSW,255,13.0,13.0,33,0.00,,,0.00,meteohub,2013-06-09 22:16:00,
2013-06-09 17:21:00,87.6,55.8,29.92,West,266,16.0,16.0,34,0.00,,,0.00,meteohub,2013-06-09 22:21:00,
2013-06-09 17:26:00,87.4,54.0,29.92,West,281,17.0,21.0,32,0.00,,,0.00,meteohub,2013-06-09 22:26:00,
2013-06-09 17:31:00,86.7,54.1,29.92,West,277,12.0,22.0,33,0.00,,,0.00,meteohub,2013-06-09 22:31:00,
2013-06-09 17:36:00,86.2,53.8,29.92,WNW,282,9.0,22.0,33,0.00,,,0.00,meteohub,2013-06-09 22:36:00,
2013-06-09 17:41:00,86.0,54.3,29.92,WSW,255,10.0,22.0,34,0.00,,,0.00,meteohub,2013-06-09 22:41:00,
2013-06-09 17:46:00,86.4,54.7,29.92,West,266,12.0,21.0,34,0.00,,,0.00,meteohub,2013-06-09 22:46:00,
2013-06-09 17:51:00,86.7,55.0,29.92,SW,228,10.0,18.0,34,0.00,,,0.00,meteohub,2013-06-09 22:51:00,
2013-06-09 17:56:00,86.7,55.0,29.92,WSW,249,13.0,18.0,34,0.00,,,0.00,meteohub,2013-06-09 22:56:00,
2013-06-09 18:01:00,86.4,55.4,29.92,WSW,245,13.0,20.0,35,0.00,,,0.00,meteohub,2013-06-09 23:01:00,
2013-06-09 18:06:00,85.8,55.0,29.92,West,267,8.0,20.0,35,0.00,,,0.00,meteohub,2013-06-09 23:06:00,
2013-06-09 18:11:00,85.5,55.4,29.92,WSW,242,6.0,19.0,36,0.00,,,0.00,meteohub,2013-06-09 23:11:00,
2013-06-09 18:16:00,85.5,55.4,29.92,WSW,257,8.0,19.0,36,0.00,,,0.00,meteohub,2013-06-09 23:16:00,
2013-06-09 18:21:00,85.5,55.4,29.92,SW,236,8.0,17.0,36,0.00,,,0.00,meteohub,2013-06-09 23:21:00,
2013-06-09 18:26:00,85.6,55.6,29.92,WSW,257,9.0,17.0,36,0.00,,,0.00,meteohub,2013-06-09 23:26:00,
2013-06-09 18:31:00,85.6,56.3,29.92,West,267,10.0,15.0,37,0.00,,,0.00,meteohub,2013-06-09 23:31:00,
2013-06-09 18:36:00,85.5,56.3,29.91,West,270,13.0,15.0,37,0.00,,,0.00,meteohub,2013-06-09 23:36:00,
2013-06-09 18:41:00,85.6,57.2,29.91,West,266,9.0,15.0,38,0.00,,,0.00,meteohub,2013-06-09 23:41:00,
2013-06-09 18:46:00,85.8,57.2,29.91,WSW,247,10.0,15.0,38,0.00,,,0.00,meteohub,2013-06-09 23:46:00,
2013-06-09 18:51:00,85.6,57.2,29.92,West,259,5.0,15.0,38,0.00,,,0.00,meteohub,2013-06-09 23:51:00,
2013-06-09 18:56:00,85.3,57.6,29.92,West,264,8.0,15.0,39,0.00,,,0.00,meteohub,2013-06-09 23:56:00,
2013-06-09 19:01:00,85.5,57.0,29.92,WSW,253,9.0,15.0,38,0.00,,,0.00,meteohub,2013-06-10 00:01:00,
2013-06-09 19:07:00,85.3,56.8,29.92,WSW,255,6.0,16.0,38,0.00,,,0.00,meteohub,2013-06-10 00:07:00,
2013-06-09 19:12:00,85.3,56.8,29.92,WSW,257,12.0,16.0,38,0.00,,,0.00,meteohub,2013-06-10 00:12:00,
2013-06-09 19:17:00,84.9,57.2,29.92,WSW,249,10.0,16.0,39,0.00,,,0.00,meteohub,2013-06-10 00:17:00,
2013-06-09 19:22:00,84.6,57.6,29.92,West,270,4.0,12.0,40,0.00,,,0.00,meteohub,2013-06-10 00:22:00,
2013-06-09 19:27:00,84.6,58.3,29.92,West,276,4.0,12.0,41,0.00,,,0.00,meteohub,2013-06-10 00:27:00,
2013-06-09 19:32:00,84.4,58.1,29.92,West,259,5.0,10.0,41,0.00,,,0.00,meteohub,2013-06-10 00:32:00,
2013-06-09 19:37:00,84.4,58.1,29.93,WSW,257,4.0,7.0,41,0.00,,,0.00,meteohub,2013-06-10 00:37:00,
2013-06-09 19:42:00,84.4,58.8,29.92,WSW,253,6.0,6.0,42,0.00,,,0.00,meteohub,2013-06-10 00:42:00,
2013-06-09 19:47:00,84.0,58.5,29.93,West,263,5.0,7.0,42,0.00,,,0.00,meteohub,2013-06-10 00:47:00,
2013-06-09 19:52:00,83.7,58.8,29.93,West,274,3.0,7.0,43,0.00,,,0.00,meteohub,2013-06-10 00:52:00,
2013-06-09 19:57:00,83.7,60.1,29.92,WNW,284,2.0,7.0,45,0.00,,,0.00,meteohub,2013-06-10 00:57:00,
2013-06-09 20:02:00,83.3,59.7,29.92,West,274,2.0,6.0,45,0.00,,,0.00,meteohub,2013-06-10 01:02:00,
2013-06-09 20:07:00,83.1,60.3,29.92,WSW,256,5.0,5.0,46,0.00,,,0.00,meteohub,2013-06-10 01:07:00,
2013-06-09 20:12:00,82.9,60.1,29.93,West,259,5.0,6.0,46,0.00,,,0.00,meteohub,2013-06-10 01:12:00,
2013-06-09 20:17:00,82.9,60.1,29.92,WSW,253,4.0,7.0,46,0.00,,,0.00,meteohub,2013-06-10 01:17:00,
2013-06-09 20:22:00,82.9,60.1,29.93,West,276,2.0,7.0,46,0.00,,,0.00,meteohub,2013-06-10 01:22:00,
2013-06-09 20:27:00,82.9,60.6,29.92,West,271,2.0,7.0,47,0.00,,,0.00,meteohub,2013-06-10 01:27:00,
2013-06-09 20:32:00,82.8,60.4,29.92,West,280,1.0,6.0,47,0.00,,,0.00,meteohub,2013-06-10 01:32:00,
2013-06-09 20:37:00,82.6,60.3,29.92,West,264,2.0,5.0,47,0.00,,,0.00,meteohub,2013-06-10 01:37:00,
2013-06-09 20:42:00,82.2,60.6,29.93,West,277,2.0,3.0,48,0.00,,,0.00,meteohub,2013-06-10 01:42:00,
2013-06-09 20:47:00,82.0,60.4,29.93,West,280,3.0,3.0,48,0.00,,,0.00,meteohub,2013-06-10 01:47:00,
2013-06-09 20:52:00,81.9,60.3,29.93,WSW,252,4.0,4.0,48,0.00,,,0.00,meteohub,2013-06-10 01:52:00,
2013-06-09 20:57:00,81.7,60.6,29.93,WSW,255,4.0,4.0,49,0.00,,,0.00,meteohub,2013-06-10 01:57:00,
2013-06-09 21:02:00,81.5,61.0,29.93,WSW,257,2.0,5.0,50,0.00,,,0.00,meteohub,2013-06-10 02:02:00,
2013-06-09 21:07:00,81.1,60.8,29.93,SW,231,1.0,5.0,50,0.00,,,0.00,meteohub,2013-06-10 02:07:00,
2013-06-09 21:13:00,81.1,60.8,29.93,WSW,242,3.0,5.0,50,0.00,,,0.00,meteohub,2013-06-10 02:13:00,
2013-06-09 21:18:00,81.0,61.2,29.93,WSW,252,2.0,4.0,51,0.00,,,0.00,meteohub,2013-06-10 02:18:00,
2013-06-09 21:23:00,80.6,61.3,29.93,WSW,249,2.0,4.0,52,0.00,,,0.00,meteohub,2013-06-10 02:23:00,
2013-06-09 21:28:00,80.4,61.2,29.93,West,263,1.0,4.0,52,0.00,,,0.00,meteohub,2013-06-10 02:28:00,
2013-06-09 21:33:00,80.2,61.5,29.93,West,260,1.0,3.0,53,0.00,,,0.00,meteohub,2013-06-10 02:33:00,
2013-06-09 21:38:00,80.2,61.0,29.94,West,267,1.0,3.0,52,0.00,,,0.00,meteohub,2013-06-10 02:38:00,
2013-06-09 21:43:00,80.2,61.0,29.94,West,278,2.0,2.0,52,0.00,,,0.00,meteohub,2013-06-10 02:43:00,
2013-06-09 21:48:00,80.1,60.8,29.94,West,277,2.0,2.0,52,0.00,,,0.00,meteohub,2013-06-10 02:48:00,
2013-06-09 21:53:00,79.9,61.2,29.94,North,5,2.0,2.0,53,0.00,,,0.00,meteohub,2013-06-10 02:53:00,
2013-06-09 21:58:00,79.9,61.2,29.94,North,5,2.0,2.0,53,0.00,,,0.00,meteohub,2013-06-10 02:58:00,
2013-06-09 22:03:00,79.9,61.2,29.94,NNE,29,3.0,3.0,53,0.00,,,0.00,meteohub,2013-06-10 03:03:00,
2013-06-09 22:08:00,79.3,62.2,29.95,NE,41,4.0,6.0,56,0.00,,,0.00,meteohub,2013-06-10 03:08:00,
2013-06-09 22:13:00,78.6,62.6,29.95,NE,37,3.0,8.0,58,0.00,,,0.00,meteohub,2013-06-10 03:13:00,
2013-06-09 22:18:00,78.3,62.8,29.96,NE,41,3.0,8.0,59,0.00,,,0.00,meteohub,2013-06-10 03:18:00,
2013-06-09 22:23:00,78.3,62.8,29.95,NE,50,5.0,8.0,59,0.00,,,0.00,meteohub,2013-06-10 03:23:00,
2013-06-09 22:28:00,78.1,63.1,29.96,NNE,29,5.0,7.0,60,0.00,,,0.00,meteohub,2013-06-10 03:28:00,
2013-06-09 22:33:00,78.1,63.1,29.96,NE,40,3.0,8.0,60,0.00,,,0.00,meteohub,2013-06-10 03:33:00,
2013-06-09 22:38:00,78.1,62.6,29.96,NE,34,4.0,8.0,59,0.00,,,0.00,meteohub,2013-06-10 03:38:00,
2013-06-09 22:43:00,78.3,62.2,29.96,NNW,332,4.0,8.0,58,0.00,,,0.00,meteohub,2013-06-10 03:43:00,
2013-06-09 22:48:00,78.6,62.1,29.96,NE,44,3.0,7.0,57,0.00,,,0.00,meteohub,2013-06-10 03:48:00,
2013-06-09 22:53:00,79.0,61.9,29.96,North,11,5.0,8.0,56,0.00,,,0.00,meteohub,2013-06-10 03:53:00,
2013-06-09 22:58:00,79.0,61.9,29.96,NNE,23,3.0,8.0,56,0.00,,,0.00,meteohub,2013-06-10 03:58:00,
2013-06-09 23:01:00,78.8,61.7,29.96,NE,40,4.0,8.0,56,0.00,,,0.00,meteohub,2013-06-10 04:01:00,
2013-06-09 23:02:00,78.8,62.2,29.96,NNE,12,5.0,8.0,57,0.00,,,0.00,meteohub,2013-06-10 04:02:00,
2013-06-09 23:07:00,78.4,61.0,29.96,NE,50,3.0,8.0,55,0.00,,,0.00,meteohub,2013-06-10 04:07:00,
2013-06-09 23:12:00,78.3,61.3,29.96,NE,46,3.0,7.0,56,0.00,,,0.00,meteohub,2013-06-10 04:12:00,
2013-06-09 23:17:00,78.1,60.6,29.96,NE,41,4.0,7.0,55,0.00,,,0.00,meteohub,2013-06-10 04:17:00,
2013-06-09 23:22:00,78.1,60.1,29.96,NE,47,2.0,7.0,54,0.00,,,0.00,meteohub,2013-06-10 04:22:00,
2013-06-09 23:27:00,77.7,59.7,29.96,NE,51,1.0,7.0,54,0.00,,,0.00,meteohub,2013-06-10 04:27:00,
2013-06-09 23:32:00,77.5,60.1,29.96,NNE,23,2.0,5.0,55,0.00,,,0.00,meteohub,2013-06-10 04:32:00,
2013-06-09 23:37:00,77.4,59.4,29.96,NNE,23,0.0,5.0,54,0.00,,,0.00,meteohub,2013-06-10 04:37:00,
2013-06-09 23:42:00,77.2,60.3,29.96,NNE,23,0.0,3.0,56,0.00,,,0.00,meteohub,2013-06-10 04:42:00,
2013-06-09 23:47:00,76.8,59.9,29.96,NNE,23,0.0,2.0,56,0.00,,,0.00,meteohub,2013-06-10 04:47:00,
2013-06-09 23:52:00,76.5,60.1,29.96,NNE,23,0.0,1.0,57,0.00,,,0.00,meteohub,2013-06-10 04:52:00,
2013-06-09 23:57:00,76.1,60.3,29.96,WNW,288,0.0,0.0,58,0.00,,,0.00,meteohub,2013-06-10 04:57:00,